Latest Weather Observations for Young

IDN60801

Issued at 8:03 am EDT Friday 12 February 2016 (issued every 30 minutes, with the page automatically refreshed every 10 minutes)

About weather observations | Map of weather stations | Latest weather observations for NSW | Other Formats
Station Details ID: 073138 Name: YOUNG AIRPORT Lat: -34.25 Lon: 148.25 Height: 379.6 m
Data from the previous 72 hours. | See also: Recent months at Young
Date/Time
EDT
Temp
°C
App
Temp
°C
Dew
Point
Rel
Hum
%
Delta-T
°C
Wind Press
QNH
hPa
Press
MSL
hPa
Rain
since 9 am
mm
Dir
 
Spd
km/h
Gust
km/h
Spd
kts
Gust
kts
12/08:00am 19.6 20.4 16.3 81 2.0 SSE 7 11 4 6 1016.0 1014.2 -
12/07:30am 18.1 18.9 16.3 89 1.1 S 7 9 4 5 1015.8 1014.0 -
12/07:00am 17.1 17.2 15.4 90 1.0 S 9 11 5 6 1015.6 1013.8 -
12/06:30am 17.0 16.7 15.5 91 0.9 SSW 11 11 6 6 1015.3 1013.5 -
12/06:00am 16.8 16.4 15.3 91 0.9 SSW 11 11 6 6 1015.0 1013.2 -
12/05:30am 16.3 16.3 15.3 94 0.6 SSW 9 11 5 6 1014.8 1012.9 -
12/05:00am 15.4 15.5 13.8 90 0.9 S 6 7 3 4 1014.5 1012.7 -
12/04:30am 15.8 15.7 14.0 89 1.0 SSW 7 7 4 4 1014.4 1012.6 -
12/04:00am 15.9 15.7 13.7 87 1.3 SSW 7 9 4 5 1014.3 1012.5 -
12/03:30am 15.9 15.1 13.0 83 1.6 SSW 9 11 5 6 1014.3 1012.5 -
12/03:00am 16.5 15.9 13.4 82 1.8 SSW 9 11 5 6 1014.3 1012.5 -
12/02:30am 16.9 16.7 13.6 81 1.9 S 7 9 4 5 1014.4 1012.6 -
12/02:00am 17.5 17.5 14.2 81 1.9 SSW 7 9 4 5 1014.7 1012.8 -
12/01:30am 16.5 16.2 13.2 81 1.9 SW 7 9 4 5 1014.8 1012.9 -
12/01:00am 16.5 17.4 14.0 85 1.4 WSW 2 7 1 4 1014.5 1012.7 -
12/12:30am 17.0 18.2 13.7 81 1.9 CALM 0 0 0 0 1014.7 1012.8 -
12/12:00am 17.7 18.2 14.0 79 2.1 NW 4 9 2 5 1015.1 1013.3 6.0
 
Date/Time
EDT
Temp
°C
App
Temp
°C
Dew
Point
Rel
Hum
%
Delta-T
°C
Wind Press
QNH
hPa
Press
MSL
hPa
Rain
since 9 am
mm
Dir
 
Spd
km/h
Gust
km/h
Spd
kts
Gust
kts
11/11:30pm 19.1 19.4 13.5 70 3.2 NE 4 7 2 4 1015.0 1013.2 6.0
11/11:00pm 20.2 19.9 13.4 65 4.0 WNW 7 15 4 8 1015.0 1013.2 6.0
11/10:30pm 20.8 18.7 13.5 63 4.3 ESE 17 26 9 14 1014.9 1013.0 6.0
11/10:00pm 20.9 21.2 15.9 73 3.0 ESE 9 17 5 9 1015.0 1013.2 6.0
11/09:30pm 21.3 20.0 16.7 75 2.8 ESE 19 32 10 17 1014.8 1012.9 6.0
11/09:00pm 21.0 18.9 17.2 79 2.4 ESE 24 43 13 23 1013.8 1012.0 5.6
11/08:30pm 24.2 24.2 15.1 56 5.5 ENE 9 17 5 9 1014.0 1012.2 1.6
11/08:22pm 24.9 23.5 15.5 56 5.8 SW 17 35 9 19 1013.7 1011.9 1.2
11/08:07pm 25.0 22.8 13.2 48 7.0 WSW 17 35 9 19 1011.6 1009.8 0.0
11/08:00pm 30.1 27.9 12.1 33 10.7 S 15 20 8 11 1011.4 1009.6 0.0
11/07:30pm 30.5 28.1 11.5 31 11.2 SSE 15 20 8 11 1010.8 1009.0 0.0
11/07:00pm 31.8 29.3 11.0 28 12.3 SSW 15 20 8 11 1010.2 1008.3 0.0
11/06:30pm 31.7 30.4 9.3 25 12.8 WNW 6 11 3 6 1009.9 1008.0 0.0
11/06:00pm 32.5 31.7 6.7 20 14.3 CALM 0 0 0 0 1009.7 1007.8 0.0
11/05:30pm 34.1 32.9 8.0 20 14.8 WNW 4 7 2 4 1009.8 1007.9 0.0
11/05:00pm 33.7 30.4 4.4 16 15.7 WSW 11 17 6 9 1009.7 1007.8 0.0
11/04:30pm 34.1 31.4 3.8 15 16.1 WSW 7 17 4 9 1010.0 1008.1 0.0
11/04:00pm 32.8 29.3 5.4 18 14.8 SSW 13 20 7 11 1010.4 1008.6 0.0
11/03:30pm 33.7 31.1 7.6 20 14.7 SW 11 19 6 10 1010.7 1008.9 0.0
11/03:00pm 34.0 32.2 7.1 19 15.1 NW 6 13 3 7 1011.2 1009.4 0.0
11/02:30pm 33.4 31.1 7.4 20 14.6 WNW 9 17 5 9 1011.7 1009.9 0.0
11/02:00pm 32.6 29.6 6.0 19 14.5 W 11 17 6 9 1012.2 1010.3 0.0
11/01:30pm 32.2 30.0 10.8 27 12.6 S 13 19 7 10 1012.5 1010.6 0.0
11/01:00pm 31.3 29.3 10.1 27 12.3 SSE 11 17 6 9 1012.8 1011.0 0.0
11/12:30pm 31.2 30.4 11.6 30 11.6 E 7 11 4 6 1013.1 1011.3 0.0
11/12:00pm 30.1 29.5 13.4 36 10.1 NW 9 13 5 7 1013.5 1011.7 0.0
11/11:30am 29.6 29.2 14.2 39 9.4 SSE 9 13 5 7 1013.7 1011.9 0.0
11/11:00am 28.7 28.6 13.8 40 9.0 ENE 7 13 4 7 1013.9 1012.1 0.0
11/10:30am 28.0 29.0 14.3 43 8.4 NNE 2 7 1 4 1014.0 1012.2 0.0
11/10:00am 26.5 26.8 14.9 49 7.1 E 7 13 4 7 1014.0 1012.2 0.0
11/09:30am 25.3 25.7 16.4 57 5.6 ESE 9 13 5 7 1014.3 1012.5 0.0
11/09:00am 23.3 23.4 15.6 62 4.7 ESE 9 13 5 7 1014.3 1012.5 0.0
11/08:30am 21.5 21.6 16.5 73 3.1 S 11 15 6 8 1014.4 1012.6 0.0
11/08:00am 19.5 19.9 16.3 82 1.9 S 9 13 5 7 1014.0 1012.2 0.0
11/07:30am 17.5 17.9 15.3 87 1.3 SSW 7 9 4 5 1013.6 1011.8 0.0
11/07:00am 15.4 15.3 13.9 91 0.9 SSW 7 9 4 5 1013.2 1011.4 0.0
11/06:30am 14.8 14.3 12.8 88 1.1 SSW 7 9 4 5 1012.8 1011.0 0.0
11/06:00am 14.6 14.0 12.3 86 1.3 S 7 9 4 5 1012.6 1010.8 0.0
11/05:30am 14.4 13.6 11.6 83 1.5 S 7 9 4 5 1012.3 1010.4 0.0
11/05:00am 14.5 13.6 11.5 82 1.6 S 7 9 4 5 1012.2 1010.3 0.0
11/04:30am 14.0 12.6 10.8 81 1.7 S 9 11 5 6 1012.1 1010.2 0.0
11/04:00am 14.1 13.2 11.3 83 1.5 SW 7 9 4 5 1012.1 1010.2 0.0
11/03:30am 13.9 12.4 10.7 81 1.7 S 9 11 5 6 1011.8 1010.0 0.0
11/03:00am 14.1 13.3 11.1 82 1.6 SSW 6 9 3 5 1011.8 1010.0 0.0
11/02:30am 14.1 12.7 10.9 81 1.7 SW 9 11 5 6 1012.1 1010.2 0.0
11/02:00am 14.0 12.9 10.6 80 1.8 S 7 9 4 5 1012.2 1010.3 0.0
11/01:30am 14.0 12.8 10.4 79 1.9 S 7 9 4 5 1012.5 1010.6 0.0
11/01:00am 14.9 13.6 10.1 73 2.6 SSW 7 9 4 5 1012.7 1010.9 0.0
11/12:30am 15.8 14.5 9.9 68 3.1 SSW 7 7 4 4 1012.7 1010.9 0.0
11/12:00am 16.1 14.8 10.0 67 3.3 S 7 9 4 5 1012.8 1011.0 0.0
 
Date/Time
EDT
Temp
°C
App
Temp
°C
Dew
Point
Rel
Hum
%
Delta-T
°C
Wind Press
QNH
hPa
Press
MSL
hPa
Rain
since 9 am
mm
Dir
 
Spd
km/h
Gust
km/h
Spd
kts
Gust
kts
10/11:30pm 16.8 15.7 10.6 67 3.4 SSW 7 9 4 5 1012.7 1010.9 0.0
10/11:00pm 17.3 16.4 10.7 65 3.6 SSW 6 7 3 4 1012.7 1010.9 0.0
10/10:30pm 18.8 17.5 10.1 57 4.7 S 7 9 4 5 1012.7 1010.9 0.0
10/10:00pm 18.8 18.2 10.4 58 4.6 SSW 4 7 2 4 1012.7 1010.9 0.0
10/09:30pm 20.1 18.8 9.9 52 5.6 SW 7 9 4 5 1012.4 1010.5 0.0
10/09:00pm 21.6 21.2 9.8 47 6.5 SSW 2 7 1 4 1012.2 1010.3 0.0
10/08:30pm 24.2 23.1 8.6 37 8.5 WSW 4 7 2 4 1012.0 1010.1 0.0
10/08:00pm 28.6 26.1 6.7 25 11.8 SSW 9 11 5 6 1011.7 1009.9 0.0
10/07:30pm 30.5 27.6 6.4 22 13.1 SSW 11 15 6 8 1011.2 1009.4 0.0
10/07:00pm 32.7 30.4 7.5 21 14.1 SW 9 13 5 7 1010.9 1009.1 0.0
10/06:30pm 33.9 31.7 7.8 20 14.7 W 9 15 5 8 1010.7 1008.9 0.0
10/06:00pm 33.9 31.1 7.0 19 15.0 W 11 13 6 7 1010.7 1008.9 0.0
10/05:30pm 33.5 31.2 7.5 20 14.6 W 9 17 5 9 1010.8 1009.0 0.0
10/05:00pm 33.4 31.3 8.1 21 14.3 WSW 9 20 5 11 1011.0 1009.2 0.0
10/04:30pm 33.4 29.6 7.4 20 14.6 WSW 17 26 9 14 1011.2 1009.4 0.0
10/04:00pm 33.2 31.0 7.9 21 14.3 W 9 15 5 8 1011.5 1009.7 0.0
10/03:30pm 33.1 31.4 9.8 24 13.5 WSW 9 24 5 13 1012.1 1010.2 0.0
10/03:00pm 32.5 30.1 9.9 25 13.1 WSW 13 24 7 13 1012.5 1010.6 0.0
10/02:30pm 31.9 29.4 8.2 23 13.4 WNW 11 24 6 13 1012.9 1011.1 0.0
10/02:00pm 31.4 29.5 11.7 29 11.7 NW 13 28 7 15 1013.4 1011.6 0.0
10/01:30pm 31.3 30.0 12.6 31 11.3 W 11 20 6 11 1013.9 1012.1 0.0
10/01:00pm 30.1 28.6 13.0 35 10.3 WNW 13 20 7 11 1014.3 1012.5 0.0
10/12:30pm 29.7 28.2 13.0 35 10.0 WNW 13 24 7 13 1014.9 1013.0 0.0
10/12:00pm 28.8 29.1 15.0 43 8.5 WNW 7 15 4 8 1015.3 1013.5 0.0
10/11:30am 28.6 28.4 16.8 48 7.5 NW 13 17 7 9 1015.7 1013.9 0.0
10/11:00am 27.0 25.9 14.4 46 7.7 N 13 19 7 10 1016.0 1014.2 0.0
10/10:30am 25.8 24.9 14.9 51 6.7 N 13 17 7 9 1016.1 1014.3 0.0
10/10:00am 24.8 23.2 15.1 54 5.9 N 17 20 9 11 1016.4 1014.6 0.0
10/09:30am 23.7 22.9 15.2 59 5.2 N 13 19 7 10 1016.6 1014.8 0.0
10/09:00am 22.4 21.6 15.0 63 4.5 NE 13 17 7 9 1016.6 1014.8 0.0
10/08:30am 21.0 20.0 14.6 67 3.8 NNE 13 19 7 10 1016.6 1014.8 0.0
10/08:00am 19.8 17.8 15.0 74 2.9 NNE 19 24 10 13 1016.5 1014.7 0.0
10/07:30am 18.5 18.5 15.2 81 2.0 N 9 13 5 7 1016.4 1014.6 0.0
10/07:00am 16.3 16.3 14.1 87 1.3 N 7 9 4 5 1016.4 1014.6 0.0
10/06:30am 15.1 16.1 13.1 88 1.1 CALM 0 0 0 0 1016.1 1014.3 0.0
10/06:00am 15.6 16.7 13.4 87 1.3 CALM 0 0 0 0 1016.0 1014.2 0.0
10/05:30am 16.1 17.0 13.9 87 1.3 NW 2 6 1 3 1015.6 1013.8 0.0
10/05:00am 16.2 17.4 13.9 86 1.3 CALM 0 0 0 0 1015.5 1013.7 0.0
10/04:30am 16.3 17.6 14.1 87 1.3 CALM 0 0 0 0 1015.4 1013.6 0.0
10/04:00am 15.6 15.5 13.4 87 1.3 S 6 7 3 4 1015.4 1013.6 0.0
10/03:30am 16.0 16.7 13.5 85 1.4 NW 2 7 1 4 1015.4 1013.6 0.0
10/03:00am 16.5 16.3 13.6 83 1.7 SW 7 11 4 6 1015.3 1013.5 0.0
10/02:30am 16.2 15.6 13.5 84 1.5 SW 9 11 5 6 1015.5 1013.7 0.0
10/02:00am 16.2 16.0 13.1 82 1.8 SSW 6 7 3 4 1015.8 1014.0 0.0
10/01:30am 16.4 16.7 13.3 82 1.8 SSW 4 7 2 4 1015.9 1014.1 0.0
10/01:00am 17.0 17.7 13.3 79 2.1 S 2 7 1 4 1016.1 1014.3 0.0
10/12:30am 17.3 18.4 13.4 78 2.2 CALM 0 0 0 0 1016.2 1014.4 0.0
10/12:00am 18.0 18.4 13.7 76 2.5 SW 4 7 2 4 1016.3 1014.5 0.0
 
Date/Time
EDT
Temp
°C
App
Temp
°C
Dew
Point
Rel
Hum
%
Delta-T
°C
Wind Press
QNH
hPa
Press
MSL
hPa
Rain
since 9 am
mm
Dir
 
Spd
km/h
Gust
km/h
Spd
kts
Gust
kts
09/11:30pm 18.2 18.5 13.3 73 2.8 SW 4 7 2 4 1016.4 1014.6 0.0
09/11:00pm 19.3 20.0 13.5 69 3.4 SW 2 7 1 4 1016.6 1014.8 0.0
09/10:30pm 20.5 20.3 13.5 64 4.1 SSW 7 11 4 6 1016.6 1014.8 0.0
09/10:00pm 20.9 20.7 13.6 63 4.3 SSW 7 9 4 5 1016.5 1014.7 0.0
09/09:30pm 20.8 20.8 14.2 66 3.9 SW 7 7 4 4 1016.4 1014.6 0.0
09/09:00pm 22.4 22.5 14.5 61 4.7 SW 7 9 4 5 1016.2 1014.4 0.0
09/08:30pm 24.7 24.5 13.6 50 6.6 SW 7 7 4 4 1016.0 1014.2 0.0
09/08:00pm 26.3 27.7 14.4 48 7.2 CALM 0 4 0 2 1016.0 1014.2 0.0
09/07:30pm 28.2 28.0 12.9 38 9.1 SSE 6 9 3 5 1015.7 1013.9 0.0
09/07:00pm 30.2 29.4 11.2 31 11.1 SE 6 9 3 5 1015.5 1013.7 0.0
09/06:30pm 31.0 30.4 10.4 28 12.0 WSW 4 7 2 4 1015.4 1013.6 0.0
09/06:00pm 31.9 33.0 13.6 32 11.2 CALM 0 0 0 0 1015.5 1013.7 0.0
09/05:30pm 30.1 28.9 11.6 32 10.9 SSW 9 9 5 5 1015.7 1013.9 0.0
09/05:00pm 31.0 28.9 9.8 27 12.2 SSE 11 17 6 9 1016.0 1014.2 0.0
09/04:30pm 32.0 31.2 11.2 28 12.3 SSE 6 13 3 7 1016.3 1014.5 0.0
09/04:00pm 31.8 30.7 10.5 27 12.4 S 7 11 4 6 1016.6 1014.8 0.0
09/03:30pm 31.4 30.7 13.2 33 11.1 NNW 9 13 5 7 1017.0 1015.2 0.0
09/03:00pm 30.5 29.3 12.9 34 10.6 ESE 11 19 6 10 1017.7 1015.9 0.0
09/02:30pm 30.1 29.5 13.4 36 10.1 NE 9 17 5 9 1018.2 1016.4 0.0
09/02:00pm 29.5 29.1 12.9 36 9.9 N 7 15 4 8 1018.7 1016.9 0.0
09/01:30pm 29.1 29.1 13.7 38 9.3 SW 6 13 3 7 1019.0 1017.2 0.0
09/01:00pm 27.9 28.0 13.8 42 8.5 NE 6 11 3 6 1019.4 1017.6 0.0
09/12:30pm 27.5 26.8 14.2 44 8.1 NE 11 17 6 9 1019.8 1018.1 0.0
09/12:00pm 26.3 25.3 13.4 45 7.7 SE 11 20 6 11 1020.3 1018.5 0.0
09/11:30am 26.2 25.2 14.6 48 7.1 E 13 22 7 12 1020.7 1018.9 0.0
09/11:00am 25.7 24.8 14.8 51 6.6 ENE 13 20 7 11 1020.9 1019.1 0.0
09/10:30am 24.3 23.5 14.1 53 6.1 ENE 11 17 6 9 1021.0 1019.2 0.0
09/10:00am 23.7 22.5 14.1 55 5.7 ENE 13 19 7 10 1021.2 1019.4 0.0
09/09:30am 22.8 21.2 13.8 57 5.3 E 15 20 8 11 1021.3 1019.5 0.0
09/09:00am 22.0 20.5 14.1 61 4.7 E 15 19 8 10 1021.2 1019.4 0.0
09/08:30am 21.3 21.3 14.2 64 4.2 E 7 13 4 7 1021.0 1019.2 0.0

Other Formats:

Comma delimited format used in spreadsheet applications
http://www.bom.gov.au/fwo/IDN60801/IDN60801.94712.axf

JavaScript Object Notation format (JSON) in row-major order
http://www.bom.gov.au/fwo/IDN60801/IDN60801.94712.json